User: anonymous   Login
Location: Unspecified
(0.0000°N, 0.0000°E)
Time: 07:49:34
(UTC+00:00)
Language:

Tiros 9 - Orbit

View from above orbital plane
View from above orbital plane
View from above satellite
View from above satellite

Ground track
Ground track

The orbit data is extracted from the following two-line orbital elements,

1 00978U 65004A   18112.82629231  .00000148  00000-0  20795-3 0  9994
2 00978  96.4049 229.0878 1158889 350.8431   7.3031 12.10870933351656
Epoch (UTC): 22 April 2018 19:49:51
Eccentricity: 0.1158889
inclination: 96.4049°
perigee height: 704 km
apogee height: 2561 km
right ascension of ascending node: 229.0878°
argument of perigee: 350.8431°
revolutions per day: 12.10870933
mean anomaly at epoch: 7.3031°
orbit number at epoch: 35165

The dashed part of the orbit path shows where the satellite is in the earth's shadow,  

DLR